Location: Palomar Mountain Lodge
(33.3110°N, 116.8495°W)
Time: 06:18:01
(UTC-07:00)

Cosmos 1538 Rocket - Pass Details

Date: 19 May 2017
Orbit: 752 x 792 km, 74.0° (Epoch: 28 May)

Event Time Altitude Azimuth Distance (km) Brightness Sun altitude
Rises 20:29:57 0° 177° (S) 3,189 6.9 -9.4°
Reaches altitude 10° 20:32:26 10° 169° (S) 2,265 6.0 -9.8°
Maximum altitude 20:37:11 39° 101° (E) 1,109 4.4 -10.6°
Drops below altitude 10° 20:41:57 10° 33° (NNE) 2,276 6.5 -11.5°
Sets 20:44:26 0° 26° (NNE) 3,206 7.3 -11.9°
